Location: Beekmeers
(50.8953°N, 3.6968°E)
Time: 06:45:20
(UTC+00:00)

Sich 1 Rocket - Pass Details

Date: 23 May 2024
Orbit: 613 x 650 km, 82.5° (Epoch: 19 June)

Event Time Altitude Azimuth Distance (km) Brightness Sun altitude
Rises 02:30:56 0° 350° (N) 2,964 7.7 -9.4°
Reaches altitude 10° 02:33:12 10° 352° (N) 2,044 6.9 -9.2°
Maximum altitude 02:37:45 78° 79° (E) 655 3.8 -8.7°
Drops below altitude 10° 02:42:12 10° 166° (SSE) 2,004 5.9 -8.2°
Sets 02:44:25 0° 168° (SSE) 2,900 6.7 -8.0°
